SL-8 DEB, 23007

Orbit data source: Space-Track

SL-8 DEB, 23007 is space debris in LEO originally from a launch on Wed, 16 Jun 1993 UTC launched from the Plesetsk Missile And Space Complex (PKMTR). Debris objects in space refer to the collection of defunct objects orbiting the Earth. Examples of debris include non-operational satellites, rocket bodies, and fragments generated from explosions, collisions, or faulty payload assembly.

Loading next visibility...
Identifier
23007, 1993-036C
Orbit
LEO
Country
Flag of CISCIS
Related business
Manufacturer
Unknown
Mission
Spacecraft
Bus & Motor
Unknown
Mass
Unknown
Launch date (UTC)
1993-06-16 (33 years ago)
Launch vehicle
Unknown
Launch site
Plesetsk Missile And Space Complex (PKMTR)
Object type
Payload
Rocket body
Debris
Shape & HBR
Unknown shape, 0.1 m
Radar Cross Section
Medium (>0.1 m² and <1 m²)

Expand to show TLE details & history
Last TLE update: 7 hours ago

TLE from 7 hours ago
0 SL-8 DEB
1 23007U 93036C   26165.56852175  .00001071  00000-0  29215-3 0  9993
2 23007  74.0239 119.3056 0008911  68.6544  51.3807 14.48540155729690
Epoch: 2026-06-14T13:38Z
TLE epoch observation values (Epoch: 2026-06-14T13:38:40.279Z)
Latitude
56.37334°
Longitude
166.41904°
Altitude
735.533 km
Speed
7.495 km/s
True Right ascension
18h 15m 49s
True Declination
56° 12' 51"
Sunlit
Object was in daylight at epoch
Visualization orbit readout
Latitude
Unknown
Longitude
Unknown
Altitude
Unknown
Speed
Unknown
Apparent Right ascension
Unknown
Apparent Declination
Unknown
Sunlit
N/A
Visualization observer readout
Local Sidereal Time
06:57:59
Azimuth
Unknown
Elevation
Unknown
Doppler factor
Unknown
Orbital elements
Apogee altitude
734.364 km
Perigee altitude
721.699 km
Semi-major axis
7,106.169 km
Eccentricity
0.00089
Inclination
74.0239°
RAAN
119.3056°
Arg. of periapsis
68.6544°
True anomaly
51.46054°
Mean anomaly
51.3807°
Eccentric anomaly
51.42061°
Mean motion
3.62318 °/min
Orbital period
99.36 mins
BSTAR
0.00029215

Documentation

Showing up to 5 results
|